(128229) = 1998 SP100 = 2003 SO125

Discovered at Socorro on 2003-09-19 by LINEAR.

Orbit

Orbit type: Main Belt

Note: WebGL enabled browser required.

epoch2023-09-13.0
epoch JD2460200.5
perihelion date2018-12-17.90223
perihelion JD2458470.40223
argument of perihelion (°)358.56588
ascending node (°)342.06445
inclination (°)8.50439
eccentricity0.1572884
perihelion distance (AU)2.5092244
Tisserand w.r.t. Jupiter3.2
ΔV w.r.t. Earth (km/sec)10.3
semimajor axis (AU)2.9775601
mean anomaly (°)331.88199
mean daily motion (°/day)0.19182850
aphelion distance (AU)3.446
period (years)5.14
P-vector [x]0.94348307
P-vector [y]-0.30258135
P-vector [z]-0.13521916
Q-vector [x]0.32827690
Q-vector [y]0.79714921
Q-vector [z]0.50674195
absolute magnitude15.62
phase slope0.15
uncertainty0
referenceMPEC 2024-A34
observations used390
oppositions17
arc length (days)9979
first opposition used1996
last opposition used2023
residual rms (arc-secs)0.73
perturbers coarse indicatorM-v
perturbers precise indicator003Ek
first observation date used1996-03-20.0
last observation date used2023-07-15.0
computer nameMPCLINUX
JD of orbit computation2456670.753286
perihelion JD uncertainty (days)7.8989E-05
argument of perihelion uncertainty (°)3.6674E-05
ascending node uncertainty (°)3.0372E-05
inclination uncertainty (°)1.3787E-05
eccentricity uncertainty 1.7206E-07
perihelion distance uncertainty (AU)5.3191E-07
Minimum Orbit Intersection Distances (in AU)
for orbit epoch: 2460200.5, reference: E2024-A34
Mercury2.11431
Venus1.78302
Earth1.50017
Mars1.12843
Jupiter1.94006
Saturn5.81186
Uranus15.002
Neptune26.9796

Observations

398 total observations over interval: 1996 03 20.27226 – 2023 07 15.967436
These data are available for download (format description).

Date (UT) J2000 RA J2000 Dec Magn Location Ref
1996 03 20.27226 11 49 34.28 -02 38 18.5   691 – Steward Observatory, Kitt Peak-Spacewatch MPS 168167
1996 03 20.29514 11 49 33.16 -02 38 13.7 20.2 V 691 – Steward Observatory, Kitt Peak-Spacewatch MPS 168167
1996 03 20.31743 11 49 32.05 -02 38 09.3   691 – Steward Observatory, Kitt Peak-Spacewatch MPS 168167
1998 09 26.21280 00 54 40.65 +13 18 38.1 19.5   704 – Lincoln Laboratory ETS, New Mexico MPS 2762
1998 09 26.22953 00 54 39.67 +13 18 38.3 19.5   704 – Lincoln Laboratory ETS, New Mexico MPS 2762
1998 09 26.24620 00 54 38.84 +13 18 38.9 19.5   704 – Lincoln Laboratory ETS, New Mexico MPS 2762
1998 09 26.26283 00 54 37.98 +13 18 38.5 19.2   704 – Lincoln Laboratory ETS, New Mexico MPS 2762
1998 09 26.27951 00 54 36.94 +13 18 38.0 19.2   704 – Lincoln Laboratory ETS, New Mexico MPS 2762
1998 09 27.29983 00 53 44.56 +13 17 31.3 19.7   704 – Lincoln Laboratory ETS, New Mexico MPS 2762
1998 09 27.31778 00 53 43.64 +13 17 32.6 19.7   704 – Lincoln Laboratory ETS, New Mexico MPS 2762
1998 09 27.33535 00 53 42.46 +13 17 30.4 19.4   704 – Lincoln Laboratory ETS, New Mexico MPS 2762
1998 09 27.35277 00 53 41.63 +13 17 30.4 20.1   704 – Lincoln Laboratory ETS, New Mexico MPS 2762
1998 10 11.25155 00 41 22.55 +12 50 57.5 18.6 R 699 – Lowell Observatory-LONEOS MPS 90516
1998 10 11.27143 00 41 21.46 +12 50 54.6   699 – Lowell Observatory-LONEOS MPS 90516
1998 10 11.29130 00 41 20.38 +12 50 50.3   699 – Lowell Observatory-LONEOS MPS 90516
2001 04 16.118990 11 00 23.027 +03 29 10.13 21.16 V 645 – Apache Point-Sloan Digital Sky Survey MPS 163791
2001 04 16.122462 11 00 22.934 +03 29 10.39 21.90   645 – Apache Point-Sloan Digital Sky Survey MPS 163791
2003 09 17.22249 23 54 11.77 +03 26 26.8 18.6   644 – Palomar Mountain/NEAT MPS 86315
2003 09 17.28594 23 54 08.36 +03 26 21.2 18.5   644 – Palomar Mountain/NEAT MPS 86315
2003 09 17.37016 23 54 03.76 +03 26 14.1 18.6   644 – Palomar Mountain/NEAT MPS 86315
2003 09 19.29602 23 52 22.23 +03 23 24.4 18.7   704 – Lincoln Laboratory ETS, New Mexico MPS 85484
2003 09 19.30842 23 52 21.56 +03 23 22.9 19.2   704 – Lincoln Laboratory ETS, New Mexico MPS 85484
2003 09 19.32075 23 52 20.93 +03 23 21.4 18.9   704 – Lincoln Laboratory ETS, New Mexico MPS 85484
2003 09 19.33280 23 52 20.21 +03 23 20.9 18.9   704 – Lincoln Laboratory ETS, New Mexico MPS 85484
2003 09 19.34500 23 52 19.56 +03 23 19.9 18.8   704 – Lincoln Laboratory ETS, New Mexico MPS 85484
2003 09 21.88904 23 50 05.13 +03 19 13.9 18.0 R 106 – Crni Vrh MPS 85484
2003 09 21.91216 23 50 03.87 +03 19 11.5 18.1 R 106 – Crni Vrh MPS 85484
2003 09 21.95814 23 50 01.36 +03 19 06.8 18.0 R 106 – Crni Vrh MPS 85484
2003 09 22.23238 23 49 47.01 +03 18 40.9 18.2 R 699 – Lowell Observatory-LONEOS MPS 85484
2003 09 22.25233 23 49 45.90 +03 18 38.9   699 – Lowell Observatory-LONEOS MPS 85484
2003 09 22.27230 23 49 44.79 +03 18 36.8   699 – Lowell Observatory-LONEOS MPS 85484
2003 09 22.29227 23 49 43.66 +03 18 34.6   699 – Lowell Observatory-LONEOS MPS 85484
2003 09 27.23047 23 45 25.74 +03 09 51.0 18.8   704 – Lincoln Laboratory ETS, New Mexico MPS 86315
2003 09 27.25650 23 45 24.35 +03 09 48.5 19.4   704 – Lincoln Laboratory ETS, New Mexico MPS 86315
2003 09 27.26958 23 45 23.60 +03 09 47.0 19.0   704 – Lincoln Laboratory ETS, New Mexico MPS 86315
2003 09 27.28225 23 45 22.94 +03 09 45.0 19.4   704 – Lincoln Laboratory ETS, New Mexico MPS 86315
2003 10 03.30137 23 40 24.56 +02 58 40.0 19.3 V 691 – Steward Observatory, Kitt Peak-Spacewatch MPS 87045
2003 10 03.32879 23 40 23.20 +02 58 37.0 19.3 V 691 – Steward Observatory, Kitt Peak-Spacewatch MPS 87045
2003 10 03.35728 23 40 21.79 +02 58 33.8 19.4 V 691 – Steward Observatory, Kitt Peak-Spacewatch MPS 87045
2003 10 15.15616 23 32 15.30 +02 39 43.4 18.5 R 699 – Lowell Observatory-LONEOS MPS 88184
2003 10 15.17273 23 32 14.74 +02 39 41.5   699 – Lowell Observatory-LONEOS MPS 88184
2003 10 15.18938 23 32 14.13 +02 39 40.3   699 – Lowell Observatory-LONEOS MPS 88184
2003 10 15.20594 23 32 13.52 +02 39 39.4   699 – Lowell Observatory-LONEOS MPS 88184
2003 10 25.14674 23 27 45.41 +02 31 06.6 19.2 C 704 – Lincoln Laboratory ETS, New Mexico MPS 291251
2003 10 25.15885 23 27 45.10 +02 31 05.0 18.5 C 704 – Lincoln Laboratory ETS, New Mexico MPS 291251
2003 10 25.17116 23 27 44.95 +02 31 04.3 18.4 C 704 – Lincoln Laboratory ETS, New Mexico MPS 291251
2003 10 25.18334 23 27 44.81 +02 31 04.7 18.3 C 704 – Lincoln Laboratory ETS, New Mexico MPS 291251
2003 10 25.19530 23 27 44.54 +02 31 04.8 18.8 C 704 – Lincoln Laboratory ETS, New Mexico MPS 291251
2003 11 20.13923 23 28 15.99 +03 00 00.6 19.6   704 – Lincoln Laboratory ETS, New Mexico MPS 90989
2003 11 20.15211 23 28 16.30 +03 00 01.9 19.9   704 – Lincoln Laboratory ETS, New Mexico MPS 90989
2003 11 20.19030 23 28 17.11 +03 00 07.9 20.6   704 – Lincoln Laboratory ETS, New Mexico MPS 90989
2005 10 24.62738 10 44 00.065 +10 25 37.73 20.9 R 568 – Maunakea MPS 163791
2005 10 24.63275 10 44 00.375 +10 25 35.63 20.8 R 568 – Maunakea MPS 163791
2005 10 24.63795 10 44 00.692 +10 25 33.52 20.9 R 568 – Maunakea MPS 163791
2006 01 25.47622 11 23 11.34 +04 52 03.4   691 – Steward Observatory, Kitt Peak-Spacewatch MPS 160408
2006 01 25.49362 11 23 10.93 +04 52 03.7   691 – Steward Observatory, Kitt Peak-Spacewatch MPS 160408
2006 01 25.51095 11 23 10.54 +04 52 04.2   691 – Steward Observatory, Kitt Peak-Spacewatch MPS 160408
2006 01 26.42729 11 22 49.80 +04 52 52.2 21.2 V G96 – Mt. Lemmon Survey MPS 160408
2006 01 26.43326 11 22 49.62 +04 52 52.8 21.3 V G96 – Mt. Lemmon Survey MPS 160408
2006 01 26.43926 11 22 49.47 +04 52 53.1 21.1 V G96 – Mt. Lemmon Survey MPS 160408
2006 01 26.44521 11 22 49.33 +04 52 53.4 21.0 V G96 – Mt. Lemmon Survey MPS 160408
2006 01 30.45486 11 21 06.69 +04 57 28.4 20.9 V 691 – Steward Observatory, Kitt Peak-Spacewatch MPS 161771
2006 01 30.47219 11 21 06.17 +04 57 30.0 21.0 V 691 – Steward Observatory, Kitt Peak-Spacewatch MPS 161771
2006 01 30.48950 11 21 05.66 +04 57 31.2 20.9 V 691 – Steward Observatory, Kitt Peak-Spacewatch MPS 161771
2006 02 07.44799 11 16 50.01 +05 11 18.2   691 – Steward Observatory, Kitt Peak-Spacewatch MPS 162776
2006 02 07.46534 11 16 49.32 +05 11 20.6   691 – Steward Observatory, Kitt Peak-Spacewatch MPS 162776
2006 02 07.48269 11 16 48.71 +05 11 22.8   691 – Steward Observatory, Kitt Peak-Spacewatch MPS 162776
2006 02 21.38427 11 07 07.75 +05 47 15.1 20.7 V G96 – Mt. Lemmon Survey MPS 163791
2006 02 21.39244 11 07 07.39 +05 47 16.7 20.5 V G96 – Mt. Lemmon Survey MPS 163791
2006 02 21.40068 11 07 06.96 +05 47 18.3 20.7 V G96 – Mt. Lemmon Survey MPS 163791
2006 02 21.40909 11 07 06.56 +05 47 19.7 20.3 V G96 – Mt. Lemmon Survey MPS 163791
2006 02 23.21888 11 05 42.01 +05 52 46.4   691 – Steward Observatory, Kitt Peak-Spacewatch MPS 163791
2006 02 23.23622 11 05 41.21 +05 52 50.4   691 – Steward Observatory, Kitt Peak-Spacewatch MPS 163791
2006 02 23.25363 11 05 40.40 +05 52 53.1   691 – Steward Observatory, Kitt Peak-Spacewatch MPS 163791
2006 03 03.21691 10 59 14.33 +06 17 51.2   691 – Steward Observatory, Kitt Peak-Spacewatch MPS 165076
2006 03 03.23424 10 59 13.46 +06 17 54.7   691 – Steward Observatory, Kitt Peak-Spacewatch MPS 165076
2006 03 03.25158 10 59 12.59 +06 17 57.9   691 – Steward Observatory, Kitt Peak-Spacewatch MPS 165076
2006 03 25.26457 10 42 11.37 +07 21 31.8 21.6 V G96 – Mt. Lemmon Survey MPS 168167
2006 03 25.27052 10 42 11.05 +07 21 32.1 20.6 V G96 – Mt. Lemmon Survey MPS 168167
2006 03 25.27646 10 42 10.83 +07 21 33.4 20.8 V G96 – Mt. Lemmon Survey MPS 168167
2006 03 25.28230 10 42 10.58 +07 21 34.3 20.8 V G96 – Mt. Lemmon Survey MPS 168167
2008 08 21.29155 23 04 22.57 -07 05 09.6 19.2 V 691 – Steward Observatory, Kitt Peak-Spacewatch MPS 255076
2008 08 21.30913 23 04 21.71 -07 05 10.5 19.2 V 691 – Steward Observatory, Kitt Peak-Spacewatch MPS 255076
2008 08 21.32671 23 04 20.84 -07 05 11.3 19.1 V 691 – Steward Observatory, Kitt Peak-Spacewatch MPS 255076
2008 08 24.27183 23 01 58.29 -07 07 37.5 18.8   704 – Lincoln Laboratory ETS, New Mexico MPS 255076
2008 08 24.28467 23 01 57.64 -07 07 38.3 18.9   704 – Lincoln Laboratory ETS, New Mexico MPS 255076
